Hallock, MN

2:00 PM CDT on March 26, 2017 (GMT -0500)
Hallock Municipal

Weather History for KHCO - December, 2013

Change the Weather History Date:

Saturday, December 7, 2013

  Actual Average Record
Temperature  
Mean Temperature -17 °F -  
Max Temperature -9 °F 18 °F 53 °F (1939)
Min Temperature -25 °F 1 °F -26 °F (1958)
Degree Days  
Heating Degree Days 82    
Moisture  
Dew Point -26 °F    
Average Humidity 68    
Maximum Humidity 77    
Minimum Humidity 59    
Precipitation  
Precipitation 0.00 in - - ()
Sea Level Pressure  
Sea Level Pressure 30.48 in    
Wind  
Wind Speed 6 mph (SSW)    
Max Wind Speed 14 mph    
Max Gust Speed -    
Visibility 10 miles    
Events      
Averages and records for this station are not official NWS values.
T = Trace of Precipitation, MM = Missing Value Source: NWS Daily Summary

Daily Weather History Graph

Daily Weather History Graph

Search for Another Location

Airport or City:

Trip Planner

Search our weather history database for the weather conditions in past years. The results will help you decide how hot, cold, wet, or windy it might be!

Date:

Astronomy

Dec. 07, 2013 Rise Set
Actual Time 8:06 AM CST 4:31 PM CST
Civil Twilight 7:30 AM CST 5:08 PM CST
Nautical Twilight 6:50 AM CST 5:48 PM CST
Astronomical Twilight 6:11 AM CST 6:26 PM CST
Moon 11:34 AM CST (12/7) 10:35 PM CST (12/7)
Length of Visible Light 9h 38m
Length of Day
8h 24m
Waxing Crescent, 29% of the Moon is Illuminated
Dec 7
Waxing Crescent
Dec 9
First Quarter
Dec 17
Full
Dec 25
Last Quarter
Jan 1
New

Hourly Weather History & Observations

Time (CST) Temp. Windchill Dew Point Humidity Pressure Visibility Wind Dir Wind Speed Gust Speed Precip Events Conditions
12:13 AM -23.8 °F -37.7 °F -31.0 °F 69% 30.53 in 10.0 mi SW 4.6 mph - N/A   Clear
12:33 AM -20.2 °F -35.5 °F -27.4 °F 69% 30.53 in 10.0 mi SW 5.8 mph - N/A   Clear
12:53 AM -20.2 °F -35.5 °F -27.4 °F 69% 30.53 in 10.0 mi SW 5.8 mph - N/A   Clear
1:13 AM -20.2 °F -33.5 °F -27.4 °F 69% 30.52 in 10.0 mi SW 4.6 mph - N/A   Clear
1:33 AM -23.8 °F -37.7 °F -29.2 °F 76% 30.52 in 10.0 mi South 4.6 mph - N/A   Clear
1:53 AM -23.8 °F -41.6 °F -31.0 °F 69% 30.52 in 10.0 mi South 6.9 mph - N/A   Clear
2:13 AM -23.8 °F -39.8 °F -31.0 °F 69% 30.52 in 10.0 mi South 5.8 mph - N/A   Clear
2:33 AM -23.8 °F -41.6 °F -31.0 °F 69% 30.52 in 10.0 mi South 6.9 mph - N/A   Clear
2:53 AM -23.8 °F -39.8 °F -31.0 °F 69% 30.53 in 10.0 mi South 5.8 mph - N/A   Clear
3:13 AM -23.8 °F -41.6 °F -31.0 °F 69% 30.53 in 10.0 mi South 6.9 mph - N/A   Clear
3:33 AM -23.8 °F -37.7 °F -31.0 °F 69% 30.52 in 10.0 mi SSW 4.6 mph - N/A   Clear
3:53 AM -23.8 °F -41.6 °F -31.0 °F 69% 30.52 in 10.0 mi South 6.9 mph - N/A   Clear
4:13 AM -23.8 °F -39.8 °F -32.8 °F 63% 30.52 in 10.0 mi South 5.8 mph - N/A   Clear
4:33 AM -23.8 °F -35.0 °F -32.8 °F 63% 30.52 in 10.0 mi SSW 3.5 mph - N/A   Clear
4:53 AM -23.8 °F -35.0 °F -32.8 °F 63% 30.52 in 10.0 mi SSW 3.5 mph - N/A   Clear
5:13 AM -25.6 °F -39.8 °F -32.8 °F 69% 30.52 in 10.0 mi South 4.6 mph - N/A   Clear
5:33 AM -23.8 °F -39.8 °F -32.8 °F 63% 30.52 in 10.0 mi South 5.8 mph - N/A   Clear
5:53 AM -25.6 °F -39.8 °F -32.8 °F 69% 30.51 in 10.0 mi South 4.6 mph - N/A   Clear
6:13 AM -25.6 °F -41.9 °F -32.8 °F 69% 30.51 in 10.0 mi South 5.8 mph - N/A   Clear
6:33 AM -25.6 °F -37.1 °F -32.8 °F 69% 30.50 in 10.0 mi South 3.5 mph - N/A   Clear
6:53 AM -25.6 °F -39.8 °F -32.8 °F 69% 30.51 in 10.0 mi South 4.6 mph - N/A   Clear
7:13 AM -23.8 °F -39.8 °F -31.0 °F 69% 30.51 in 10.0 mi South 5.8 mph - N/A   Clear
7:32 AM -23.8 °F -37.7 °F -31.0 °F 69% 30.51 in 7.0 mi South 4.6 mph - N/A   Clear
7:53 AM -23.8 °F -37.7 °F -31.0 °F 69% 30.51 in 10.0 mi SW 4.6 mph - N/A   Mostly Cloudy
8:13 AM -20.2 °F - -27.4 °F 69% 30.51 in 10.0 mi Calm Calm - N/A   Overcast
8:33 AM -22.0 °F -35.6 °F -29.2 °F 69% 30.51 in 10.0 mi SSW 4.6 mph - N/A   Mostly Cloudy
8:53 AM -22.0 °F -35.6 °F -29.2 °F 69% 30.51 in 10.0 mi South 4.6 mph - N/A   Scattered Clouds
9:13 AM -22.0 °F -35.6 °F -29.2 °F 69% 30.52 in 10.0 mi South 4.6 mph - N/A   Clear
9:33 AM -20.2 °F -33.5 °F -27.4 °F 69% 30.52 in 10.0 mi SW 4.6 mph - N/A   Clear
9:53 AM -20.2 °F -30.9 °F -27.4 °F 69% 30.53 in 10.0 mi South 3.5 mph - N/A   Clear
10:13 AM -18.4 °F -31.4 °F -25.6 °F 70% 30.53 in 10.0 mi SSW 4.6 mph - N/A   Clear
10:33 AM -18.4 °F -28.9 °F -23.8 °F 76% 30.53 in 10.0 mi South 3.5 mph - N/A   Clear
10:53 AM -16.6 °F -26.8 °F -23.8 °F 70% 30.53 in 10.0 mi South 3.5 mph - N/A   Clear
11:13 AM -16.6 °F -29.3 °F -23.8 °F 70% 30.53 in 10.0 mi South 4.6 mph - N/A   Clear
11:33 AM -14.8 °F -30.8 °F -22.0 °F 70% 30.53 in 10.0 mi South 6.9 mph - N/A   Clear
11:52 AM -14.8 °F -29.1 °F -20.2 °F 77% 30.52 in 10.0 mi South 5.8 mph - N/A   Clear
12:13 PM -13.0 °F -25.1 °F -20.2 °F 70% 30.52 in 10.0 mi South 4.6 mph - N/A   Clear
12:33 PM -11.2 °F -31.1 °F -18.4 °F 70% 30.51 in 10.0 mi SW 11.5 mph - N/A   Clear
12:53 PM -9.4 °F -28.9 °F -20.2 °F 59% 30.51 in 10.0 mi SW 11.5 mph - N/A   Clear
1:13 PM -9.4 °F -29.8 °F -20.2 °F 59% 30.51 in 10.0 mi SW 12.7 mph - N/A   Clear
1:33 PM -9.4 °F -28.9 °F -20.2 °F 59% 30.50 in 10.0 mi SW 11.5 mph - N/A   Clear
1:53 PM -9.4 °F -27.9 °F -20.2 °F 59% 30.49 in 10.0 mi SW 10.4 mph - N/A   Clear
2:13 PM -9.4 °F -24.3 °F -18.4 °F 65% 30.49 in 10.0 mi SW 6.9 mph - N/A   Clear
2:33 PM -9.4 °F -27.9 °F -18.4 °F 65% 30.48 in 10.0 mi SW 10.4 mph - N/A   Clear
2:53 PM -9.4 °F -25.6 °F -20.2 °F 59% 30.48 in 10.0 mi WSW 8.1 mph - N/A   Clear
3:13 PM -9.4 °F -24.3 °F -20.2 °F 59% 30.47 in 10.0 mi SW 6.9 mph - N/A   Clear
3:33 PM -9.4 °F -25.6 °F -20.2 °F 59% 30.47 in 10.0 mi SW 8.1 mph - N/A   Clear
3:53 PM -11.2 °F -29.0 °F -20.2 °F 64% 30.47 in 10.0 mi SW 9.2 mph - N/A   Clear
4:13 PM -11.2 °F -27.8 °F -20.2 °F 64% 30.47 in 10.0 mi SW 8.1 mph - N/A   Clear
4:33 PM -11.2 °F -26.4 °F -22.0 °F 59% 30.47 in 10.0 mi SSW 6.9 mph - N/A   Clear
4:53 PM -14.8 °F -32.2 °F -23.8 °F 64% 30.46 in 10.0 mi SSW 8.1 mph - N/A   Clear
5:13 PM -14.8 °F -32.2 °F -23.8 °F 64% 30.46 in 10.0 mi SSW 8.1 mph - N/A   Clear
5:33 PM -16.6 °F -31.3 °F -25.6 °F 64% 30.46 in 10.0 mi South 5.8 mph - N/A   Clear
5:53 PM -18.4 °F -36.6 °F -25.6 °F 70% 30.46 in 10.0 mi South 8.1 mph - N/A   Clear
6:13 PM -18.4 °F -39.1 °F -25.6 °F 70% 30.45 in 10.0 mi SSW 10.4 mph - N/A   Clear
6:34 PM -16.6 °F -36.8 °F -25.6 °F 64% 30.45 in 10.0 mi SSW 10.4 mph - N/A   Clear
6:53 PM -18.4 °F -37.9 °F -25.6 °F 70% 30.45 in 10.0 mi South 9.2 mph - N/A   Clear
7:14 PM -16.6 °F -35.7 °F -25.6 °F 64% 30.44 in 10.0 mi SSW 9.2 mph - N/A   Clear
7:33 PM -16.6 °F -36.8 °F -23.8 °F 70% 30.44 in 10.0 mi SSW 10.4 mph - N/A   Clear
7:53 PM -18.4 °F -37.9 °F -25.6 °F 70% 30.44 in 10.0 mi South 9.2 mph - N/A   Clear
8:14 PM -18.4 °F -37.9 °F -25.6 °F 70% 30.43 in 10.0 mi South 9.2 mph - N/A   Clear
8:33 PM -18.4 °F -36.6 °F -25.6 °F 70% 30.42 in 10.0 mi South 8.1 mph - N/A   Clear
8:53 PM -18.4 °F -37.9 °F -25.6 °F 70% 30.41 in 10.0 mi South 9.2 mph - N/A   Clear
9:14 PM -18.4 °F -37.9 °F -25.6 °F 70% 30.40 in 10.0 mi South 9.2 mph - N/A   Clear
9:33 PM -18.4 °F -37.9 °F -25.6 °F 70% 30.40 in 10.0 mi South 9.2 mph - N/A   Clear
9:53 PM -18.4 °F -36.6 °F -25.6 °F 70% 30.39 in 10.0 mi South 8.1 mph - N/A   Clear
10:14 PM -18.4 °F -39.1 °F -25.6 °F 70% 30.38 in 10.0 mi South 10.4 mph - N/A   Clear
10:33 PM -18.4 °F -39.1 °F -25.6 °F 70% 30.38 in 10.0 mi South 10.4 mph - N/A   Clear
10:53 PM -18.4 °F -40.2 °F -25.6 °F 70% 30.38 in 10.0 mi South 11.5 mph - N/A   Clear
11:14 PM -18.4 °F -40.2 °F -25.6 °F 70% 30.38 in 10.0 mi South 11.5 mph - N/A   Clear
11:33 PM -18.4 °F -42.1 °F -25.6 °F 70% 30.38 in 10.0 mi South 13.8 mph - N/A   Clear
11:53 PM -18.4 °F -40.2 °F -25.6 °F 70% 30.38 in 10.0 mi South 11.5 mph - N/A   Clear